Location: *
(27.2887°S, 66.7102°E)
Time: 04:01:34
(UTC+00:00)

Daily predictions for brighter satellites

Satellite Brightness Start Highest point End
(mag) Time Altitude Azimuth Time Altitude Azimuth Time Altitude Azimuth
GPS 2-14 Rocket1 3.7 00:01:42 14° WNW 00:04:22 30° N 00:07:43 10° ENE
Landsat 5 4.3 00:00:29 10° SSE 00:04:53 58° E 00:09:06 10° N
Meteor 1-31 Rocket 3.0 00:01:19 10° N 00:05:06 48° W 00:08:53 10° SSW
Cosmos 2279 Rocket 4.1 00:00:40 10° N 00:06:51 86° E 00:13:08 10° S
Cosmos 304 Rocket 4.0 00:03:05 10° NNW 00:07:45 50° WSW 00:12:28 10° S
Cosmos 407 Rocket 3.4 00:03:30 10° SSW 00:08:39 65° WNW 00:13:43 10° N
Cosmos 1892 Rocket 3.5 00:05:37 10° SSW 00:09:58 65° W 00:14:15 10° N
Cosmos 2369 Rocket 3.7 00:06:50 11° WNW 00:10:23 19° WSW 00:14:17 10° SSW
Cosmos 1758 3.9 00:08:41 10° NNW 00:12:22 36° W 00:16:06 10° SSW
Cosmos 1634 Rocket 4.3 00:06:44 10° NNW 00:12:42 47° W 00:18:42 10° S
Cosmos 1140 Rocket 3.4 00:09:27 10° SSW 00:14:41 73° WNW 00:19:50 10° N
Meteor 2-10 4.4 00:10:22 10° NNW 00:15:53 57° W 00:21:35 10° S
SL-14 R/B 4.4 00:14:58 10° SW 00:18:07 23° W 00:21:16 10° NW
Meteor 1-24 Rocket 4.2 00:15:39 10° SSW 00:20:29 35° W 00:25:20 10° NNW
BREEZE-M DEB (TANK) 4.3 00:18:40 10° W 00:21:09 14° SW 00:22:50 10° SSW
Cosmos 1726 2.8 00:20:35 10° NNW 00:23:55 34° W 00:27:18 10° SSW
Yuri Rocket 3.4 00:20:32 10° W 00:26:07 80° S 00:30:30 10° E
